RH
34 34 40 35 34 39 39 41 50 47 37 33 38 59 60 34 35 42 42 46 49 51 48 46 48 48 45 44 42 40 40 38 38 38 37 38 38 38 38 38 37 36 34 36
37 38 38 39 39 42 47 41 50 56 39 31 39 45 56 49 38 40 44 41 38 39 46 48 44 49 50 50 49 45 41 40 42 45 46 44 43 44 42 41 38 39 40 40
37 38 39 41 42 48 52 56 55 49 51 43 41 50 48 57 50 50 48 45 43 41 37 39 47 48 49 48 50 51 48 45 43 44 47 49 47 45 43 43 42 41 41 41
37 39 41 42 44 42 47 51 56 62 57 56 47 43 52 64 67 57 53 56 51 46 42 40 41 46 49 50 49 49 49 49 47 45 46 46 47 46 46 46 45 46 47 45
32 40 42 43 42 40 42 47 48 51 54 51 59 53 52 51 56 65 64 60 62 61 60 57 47 40 43 46 47 46 45 43 42 42 42 43 43 45 44 44 45 46 47 48
36 34 34 41 47 47 44 43 42 42 44 43 49 55 52 55 59 59 61 63 62 63 64 60 60 59 50 44 45 47 45 42 43 43 42 41 42 43 45 45 50 53 53 54
55 53 48 40 35 36 37 40 44 41 40 36 38 41 43 49 53 54 60 69 71 69 67 65 67 66 63 58 55 56 57 58 54 54 55 53 49 47 48 51 56 58 57 56
58 54 53 51 47 44 40 38 36 33 33 33 34 35 37 38 40 44 48 50 56 61 66 69 72 72 71 71 70 69 62 55 58 59 59 58 59 61 60 60 59 61 59 56
55 58 57 58 58 56 53 50 46 43 39 35 33 32 30 31 34 37 36 36 39 43 46 52 59 70 78 80 78 76 77 73 67 61 57 57 57 58 60 60 59 59 60 61
73 72 84 88 86 84 83 82 80 76 65 53 43 40 36 35 33 32 32 32 31 31 31 31 36 43 48 57 66 72 78 80 76 70 65 61 64 65 64 62 60 60 61 62
83 81 94 95 86 82 87 84 82 82 78 70 59 51 50 44 44 44 46 44 43 42 43 34 32 33 36 40 45 50 55 64 69 74 77 77 76 71 66 67 65 62 63 63
88 81 96 92 94 97 100 99 99 85 74 68 58 45 48 50 51 52 47 42 42 46 48 49 48 45 40 38 40 44 47 46 46 50 54 58 62 67 68 67 67 67 65 63
85 77 76 78 80 82 82 82 83 86 85 80 73 65 60 53 49 45 43 41 40 40 44 49 52 50 46 47 50 47 47 50 52 51 50 51 54 52 51 52 52 54 56 56
86 82 80 74 63 57 56 55 57 59 58 56 53 52 50 47 43 41 38 37 36 36 36 32 30 30 36 45 49 48 48 48 47 49 53 57 56 57 61 60 60 59 60 60
86 81 80 75 67 60 57 54 51 49 47 45 44 42 38 34 31 28 26 26 29 30 30 29 29 30 31 30 30 32 37 41 43 45 45 46 50 54 56 58 61 64 72 77
78 77 70 65 55 40 32 40 46 43 37 26 20 19 20 17 14 13 14 13 13 13 13 14 16 16 19 23 25 28 29 27 31 37 36 35 36 39 42 46 52 57 62 64
63 52 43 37 35 34 33 36 35 33 28 23 20 18 19 22 24 22 19 15 12 10 9 8 9 11 13 17 18 17 19 22 29 34 36 38 41 39 41 44 47 47 47 47
55 49 38 35 28 30 38 41 37 32 27 24 22 21 20 18 16 13 12 12 11 10 8 8 8 8 8 10 11 13 16 18 19 23 28 32 37 46 49 47 52 55 55 54
42 38 38 44 45 39 40 36 31 27 26 26 22 18 15 13 12 11 10 9 9 9 9 9 8 8 7 7 8 9 10 11 14 16 18 20 30 39 31 44 49 50 51 53
52 48 43 40 36 29 32 30 28 27 28 22 16 13 10 9 9 8 8 7 7 7 7 7 7 8 8 8 8 9 9 10 10 11 12 14 16 19 23 30 40 46 49 47
51 47 40 32 28 25 27 27 26 20 16 13 11 10 9 8 8 8 7 7 7 7 7 7 7 7 6 7 7 7 7 8 9 10 11 11 10 11 13 16 19 23 26 31
41 38 34 29 28 27 24 19 15 13 12 11 10 10 10 9 8 8 8 7 7 7 8 8 8 7 7 7 7 7 7 7 7 8 10 11 10 11 11 11 11 13 15 16
34 28 26 24 20 15 13 13 12 11 10 10 10 10 10 10 9 8 8 8 7 7 7 7 7 8 8 8 7 7 7 7 7 7 8 8 8 8 9 10 12 12 12 13
22 18 16 14 14 13 13 13 12 11 11 11 10 10 9 9 9 9 9 8 8 7 7 7 7 7 7 6 7 8 8 7 8 8 8 8 8 8 8 8 9 10 10 11
16 15 14 14 13 13 12 12 12 12 11 11 10 10 10 11 13 13 12 11 11 10 9 8 8 7 7 6 6 6 6 6 7 7 6 6 7 7 8 8 8 9 9 9
14 14 14 14 13 12 12 12 12 12 11 12 13 14 13 14 15 15 14 14 13 13 12 12 11 10 10 9 9 8 7 6 6 6 6 6 6 6 6 6 6 6 7 7
Wind_Speed
55 54 58 57 55 54 53 53 52 56 56 51 52 50 56 57 55 56 57 56 55 55 55 54 53 54 54 54 54 53 51 50 48 47 48 47 47 47 48 47 46 44 42 42
58 58 61 60 59 59 57 59 58 61 62 57 55 55 59 60 60 60 60 61 62 62 61 60 59 59 60 60 60 59 58 56 53 53 54 53 52 53 53 53 51 49 48 48
57 63 64 62 61 61 62 60 63 64 66 63 62 61 62 62 62 64 65 65 65 66 67 67 65 64 65 66 65 66 65 63 61 60 60 60 59 60 60 59 56 55 55 55
55 64 67 66 65 67 65 69 67 67 69 69 69 67 66 68 68 69 70 69 69 69 70 72 71 70 69 71 72 71 71 69 67 67 67 67 66 65 65 64 62 61 61 61
52 58 64 71 72 71 72 73 74 75 74 73 71 75 72 74 74 74 76 76 76 75 76 76 77 76 75 75 76 77 77 76 75 74 74 74 73 72 72 71 69 69 68 67
56 55 58 63 70 74 76 78 79 80 81 79 78 84 76 77 79 80 81 81 82 82 82 83 83 83 83 82 81 81 81 81 80 79 80 80 80 80 78 78 76 75 74 73
61 62 63 66 67 70 72 75 79 83 85 84 86 89 83 81 84 85 86 85 86 88 88 89 89 89 89 89 88 88 88 87 86 85 84 84 85 85 85 84 82 80 80 80
64 66 67 69 71 74 77 79 81 82 81 83 86 88 88 90 90 90 93 95 94 94 94 95 95 95 95 95 95 95 95 95 93 93 91 91 90 89 89 88 87 87 86 87
68 69 71 72 75 77 79 82 84 87 87 89 86 87 89 88 91 94 97 101 102 103 103 103 102 102 102 102 103 102 102 101 101 100 100 99 98 97 96 95 95 94 95 95
71 71 74 78 80 82 84 85 88 91 93 93 89 93 93 91 94 95 95 97 100 103 107 110 111 111 111 111 110 111 110 109 107 107 106 106 106 105 104 104 103 102 102 103
70 71 70 76 79 81 84 87 91 94 97 98 97 98 98 99 100 101 101 102 103 103 103 105 108 110 112 115 116 118 118 118 116 116 114 113 113 112 112 111 111 111 111 110
74 73 72 79 81 83 84 87 91 96 97 100 103 99 98 102 103 104 106 108 110 111 111 111 112 113 113 114 113 115 117 119 120 121 121 122 122 121 120 120 119 119 117 117
81 81 83 86 88 90 94 95 98 102 105 106 112 110 110 111 112 114 115 115 115 115 114 114 115 117 120 121 121 121 120 120 120 119 119 120 120 121 123 123 124 124 123 122
89 90 93 95 98 100 102 105 108 112 115 117 120 122 122 123 125 125 126 126 126 125 125 124 123 122 122 124 124 125 126 127 127 127 125 125 123 122 120 120 119 119 119 119
98 99 101 104 108 110 111 114 117 121 123 124 123 125 126 125 125 125 124 124 125 128 130 131 132 133 133 132 131 130 131 131 130 130 129 128 128 128 127 127 127 126 125 124
104 107 108 109 110 109 107 106 109 112 114 116 118 121 124 124 123 122 122 123 124 124 125 126 128 130 133 134 135 135 136 136 136 135 134 133 132 130 130 130 130 130 130 130
103 103 104 105 108 108 107 112 111 114 116 119 121 123 124 126 126 126 127 126 126 126 126 127 127 127 128 130 132 133 134 136 137 138 138 137 136 135 134 134 133 132 132 131
104 106 106 108 109 107 108 112 116 117 117 117 119 120 120 121 122 123 123 124 123 122 119 119 121 123 124 127 129 132 133 134 135 136 138 140 140 141 141 139 138 137 136 135
106 107 109 110 112 111 112 114 116 117 116 116 114 112 113 113 114 115 114 115 115 116 115 114 114 115 116 117 120 124 128 131 134 137 139 139 138 143 142 140 142 142 142 140
107 108 108 111 113 112 113 115 115 112 110 109 107 107 108 108 108 109 109 108 108 107 108 110 110 110 111 111 112 113 116 120 125 130 135 138 138 141 142 142 143 145 145 145
110 111 112 113 114 112 111 109 106 102 100 101 103 103 102 101 98 99 98 97 97 98 98 98 101 104 104 105 107 108 111 113 116 120 124 127 132 135 138 139 141 143 145 145
111 113 113 110 109 106 103 100 98 97 98 96 95 93 92 91 91 90 90 89 89 88 89 91 93 96 98 99 100 102 105 107 109 112 116 120 122 123 126 128 131 135 139 141
107 105 102 100 99 97 94 94 92 91 89 88 87 84 83 84 85 85 85 86 85 85 86 87 87 89 93 95 95 97 100 102 103 105 108 111 113 117 119 122 125 127 128 129
95 94 92 91 91 90 87 86 86 85 82 79 78 78 77 76 77 78 79 80 80 80 81 82 84 86 89 90 91 93 95 96 98 100 103 105 107 110 112 114 116 118 120 121
86 85 85 83 82 82 81 80 77 77 74 72 72 71 71 71 73 73 75 77 77 78 79 79 80 81 84 86 89 91 91 92 94 96 98 100 101 103 105 107 109 110 113 115
77 76 76 77 79 77 73 72 69 70 69 70 70 71 70 70 72 73 74 75 77 78 79 79 80 81 82 83 85 87 89 89 90 92 95 97 99 100 102 102 104 105 106 108
Wind_Direction
229 229 232 235 236 235 234 236 239 242 238 234 238 245 250 248 247 248 248 249 252 254 255 255 256 258 257 256 255 254 254 254 256 258 260 261 264 266 268 270 270 271 272 272
231 231 235 236 237 238 238 238 241 245 243 236 242 244 249 251 251 252 252 253 253 252 254 256 256 257 259 259 260 258 256 256 257 260 261 263 264 265 267 268 269 270 269 269
236 236 239 239 239 240 242 241 242 244 247 244 241 245 249 252 252 255 255 255 256 256 256 255 256 256 259 259 260 260 260 258 257 259 262 265 264 265 267 268 269 269 269 269
241 241 241 242 241 241 242 244 243 244 246 247 244 242 247 251 254 255 257 258 258 258 258 256 256 257 257 259 260 260 260 259 259 259 261 262 263 264 266 267 268 268 269 269
245 245 247 246 246 246 245 246 247 246 247 247 250 250 247 248 252 256 258 257 258 259 261 262 261 257 256 258 259 260 260 260 259 259 260 260 261 263 264 265 266 266 267 268
251 250 251 252 252 252 251 251 251 251 250 249 249 252 248 250 254 255 257 258 258 260 261 261 262 263 262 260 260 261 261 260 260 260 260 261 262 262 263 264 265 266 267 268
251 252 252 253 255 256 256 255 255 255 256 255 252 253 253 252 252 254 256 258 260 260 259 259 260 260 261 262 262 261 262 262 262 261 261 261 261 262 263 264 265 265 266 266
254 254 255 255 257 258 259 259 259 257 257 256 257 257 255 254 254 254 253 256 258 259 259 260 260 261 261 261 261 262 261 260 261 260 260 260 261 262 263 263 263 264 265 266
256 258 259 260 260 261 262 263 263 263 262 260 260 261 259 258 258 257 256 256 256 257 259 260 260 260 261 262 262 261 261 262 261 261 260 260 260 261 261 261 262 263 264 265
257 257 261 262 263 264 264 264 265 266 265 263 263 262 262 261 261 261 260 260 259 259 259 259 260 262 262 262 262 262 262 261 262 262 262 262 262 262 263 263 263 264 264 265
261 261 261 264 264 265 265 266 267 267 268 269 266 265 265 263 262 261 261 261 261 261 262 260 261 262 262 263 264 264 263 263 263 264 263 263 263 263 263 264 264 264 264 265
261 260 261 263 264 265 267 269 271 273 272 272 271 267 267 266 266 265 264 263 262 262 261 261 261 261 262 262 262 263 264 264 264 265 265 265 264 265 265 265 265 265 265 266
263 264 263 263 264 266 267 268 268 269 270 271 272 272 270 270 270 270 269 268 266 264 262 261 261 262 262 261 261 261 261 263 263 264 264 265 265 265 266 267 268 268 269 269
266 267 267 267 267 266 267 268 268 269 270 270 271 271 271 271 271 270 269 268 267 266 266 266 265 263 261 261 262 261 261 261 262 262 262 263 264 264 265 266 266 267 267 268
269 269 270 272 273 272 272 271 271 271 272 273 273 273 272 271 271 270 270 269 268 267 267 266 264 264 263 263 262 261 261 261 261 262 262 262 263 264 265 265 265 266 266 267
269 270 271 273 274 274 274 273 273 273 274 274 274 274 274 274 274 273 272 269 267 265 264 263 263 263 263 262 261 261 262 262 261 261 261 261 261 262 262 263 264 265 265 265
273 273 274 274 275 276 278 277 278 277 276 276 276 277 278 278 277 276 274 272 271 269 266 263 262 261 260 260 260 261 260 260 260 261 261 261 261 261 261 262 263 263 264 264
273 274 275 276 277 279 279 279 279 278 279 279 280 279 277 276 275 274 274 273 273 272 270 268 266 262 260 259 258 258 259 259 259 259 260 260 261 261 261 262 263 263 263 264
276 278 279 280 280 280 280 280 281 282 283 282 280 278 277 276 275 275 274 273 272 271 270 269 267 265 263 261 259 258 257 257 257 258 258 259 258 260 261 261 261 262 263 263
279 280 281 281 280 281 282 283 283 284 284 281 280 279 278 277 277 276 275 274 272 270 269 269 268 266 265 263 261 260 259 258 257 256 256 257 256 257 258 258 260 261 262 263
280 280 280 281 282 284 285 285 285 284 282 282 281 281 280 279 277 277 275 274 273 273 271 269 268 267 266 265 264 263 261 259 258 258 258 257 257 256 256 257 258 259 260 261
281 282 283 284 285 286 286 285 285 283 283 283 282 281 280 280 279 277 276 275 273 271 270 269 268 267 266 265 264 263 263 262 261 260 259 259 259 259 259 258 257 257 258 259
281 283 285 285 286 286 286 285 285 285 284 283 282 281 280 279 278 277 277 276 275 274 273 272 269 268 268 267 266 264 264 263 261 260 260 259 259 260 260 259 259 259 259 259
284 285 285 285 286 286 286 286 286 285 284 284 283 282 281 280 279 278 277 277 276 275 273 271 270 269 269 267 266 265 265 264 264 263 262 262 261 261 260 259 258 259 260 260
286 286 286 286 286 287 287 287 286 285 285 285 283 281 280 278 277 277 277 276 276 275 274 273 272 270 269 268 268 267 265 264 264 264 264 263 262 262 261 261 261 261 261 260
286 286 287 288 288 288 288 288 288 287 287 286 285 284 282 281 281 281 280 280 279 279 278 277 275 274 273 271 270 269 268 267 266 265 265 265 265 265 264 264 263 262 262 262